Weather History for Orange, MA

Change the Weather History Date:

Thursday, April 3, 2014

  Actual Average Record
Temperature  
Mean Temperature 38 °F -  
Max Temperature 54 °F 47 °F 64 °F (2002)
Min Temperature 23 °F 26 °F 17 °F (1997)
Degree Days  
Heating Degree Days 26    
Moisture  
Dew Point 23 °F    
Average Humidity 57    
Maximum Humidity 92    
Minimum Humidity 27    
Precipitation  
Precipitation 0.00 in - - ()
Sea Level Pressure  
Sea Level Pressure 30.09 in    
Wind  
Wind Speed 3 mph (NNW)    
Max Wind Speed 12 mph    
Max Gust Speed 20 mph    
Visibility 10 miles    
Events      
Averages and records for this station are not official NWS values.
T = Trace of Precipitation, MM = Missing Value Source: NWS Daily Summary

Daily Weather History Graph

Daily Weather History Graph

Search for Another Location

Airport:

Trip Planner

Search our weather history database for the weather conditions in past years. The results will help you decide how hot, cold, wet, or windy it might be!

Date:

Astronomy

Apr. 03, 2014 Rise Set
Actual Time 6:28 AM EDT 7:17 PM EDT
Civil Twilight 5:59 AM EDT 7:46 PM EDT
Nautical Twilight 5:25 AM EDT 8:20 PM EDT
Astronomical Twilight 4:50 AM EDT 8:55 PM EDT
Moon 8:50 AM EDT (4/3) 11:38 PM EDT (4/3)
Length of Visible Light 13h 46m
Length of Day
12h 49m
Waxing Crescent, 17% of the Moon is Illuminated
Apr 3
Waxing Crescent
Apr 7
First Quarter
Apr 15
Full
Apr 22
Last Quarter
Apr 29
New

Hourly Weather History & Observations

Time (EDT) Temp. Windchill Dew Point Humidity Pressure Visibility Wind Dir Wind Speed Gust Speed Precip Events Conditions
12:52 AM 28.9 °F - 26.1 °F 89% 30.08 in 10.0 mi Calm Calm - N/A   Clear
1:52 AM 27.0 °F - 25.0 °F 92% 30.09 in 10.0 mi Calm Calm - N/A   Clear
3:52 AM 24.1 °F - 21.9 °F 91% 30.09 in 9.0 mi Calm Calm - N/A   Clear
4:52 AM 25.0 °F - 21.9 °F 88% 30.08 in 9.0 mi Calm Calm - N/A   Clear
5:52 AM 23.0 °F - 19.9 °F 88% 30.09 in 9.0 mi Calm Calm - N/A   Clear
6:52 AM 24.1 °F - 21.0 °F 88% 30.11 in 8.0 mi Calm Calm - N/A   Clear
7:52 AM 28.9 °F - 26.1 °F 89% 30.12 in 10.0 mi Calm Calm - N/A   Clear
8:52 AM 39.0 °F - 27.0 °F 62% 30.12 in 10.0 mi Calm Calm - N/A   Clear
9:52 AM 44.1 °F 38.6 °F 21.9 °F 42% 30.12 in 10.0 mi North 10.4 mph - N/A   Clear
10:52 AM 46.0 °F 41.9 °F 23.0 °F 40% 30.13 in 10.0 mi North 8.1 mph - N/A   Clear
11:52 AM 48.0 °F - 21.9 °F 36% 30.11 in 10.0 mi NNW 10.4 mph - N/A   Clear
12:52 PM 50.0 °F - 23.0 °F 35% 30.08 in 10.0 mi NNW 11.5 mph 19.6 mph N/A   Clear
1:52 PM 53.1 °F - 21.9 °F 30% 30.08 in 10.0 mi North - - N/A   Clear
2:52 PM 54.0 °F - 21.0 °F 28% 30.06 in 10.0 mi NNW 9.2 mph - N/A   Clear
3:52 PM 53.1 °F - 19.9 °F 27% 30.06 in 10.0 mi WNW 8.1 mph - N/A   Clear
4:52 PM 53.1 °F - 21.0 °F 29% 30.06 in 10.0 mi NNW 8.1 mph - N/A   Clear
5:52 PM 52.0 °F - 21.0 °F 30% 30.06 in 10.0 mi North 11.5 mph - N/A   Clear
6:52 PM 48.9 °F - 21.9 °F 35% 30.07 in 10.0 mi NNE 8.1 mph - N/A   Clear
7:52 PM 44.1 °F 41.5 °F 21.0 °F 40% 30.08 in 10.0 mi Variable 4.6 mph - N/A   Clear
8:52 PM 36.0 °F 32.1 °F 24.1 °F 62% 30.09 in 10.0 mi NNW 4.6 mph - N/A   Clear
9:52 PM 33.1 °F - 24.1 °F 70% 30.12 in 10.0 mi Calm Calm - N/A   Clear
11:52 PM 33.1 °F 30.0 °F 25.0 °F 72% 30.14 in 10.0 mi NW 3.5 mph - N/A   Clear